User: anonymous   Login
Location: Irma
(52.9170°N, 111.2330°W)
Time: 08:03:19
(UTC-06:00)
Language:

Meteor 1-24 Rocket - Orbit

View from above orbital plane
View from above orbital plane
View from above satellite
View from above satellite

Ground track
Ground track

The orbit data is extracted from the following two-line orbital elements,

1  8800U 76032B   16209.93292604 +.00000303 +00000-0 +15775-3 0  9991
2  8800 081.2513 172.7735 0095351 024.4733 336.0919 14.10072562072284
Epoch (UTC): 27 July 2016 22:23:24
Eccentricity: 0.0095351
inclination: 81.2513°
perigee height: 790 km
apogee height: 928 km
right ascension of ascending node: 172.7735°
argument of perigee: 24.4733°
revolutions per day: 14.10072562
mean anomaly at epoch: 336.0919°
orbit number at epoch: 7228

The dashed part of the orbit path shows where the satellite is in the earth's shadow,  

DLR